CAPE
12 0 0 0 0 0 0 0 0 0 0 6 12 3 0 0 0 20 40 3 0 0 8 116 126 33 25 3 1 0 1 1 6 2 1 2 2 0 0 0 0 0 0 0
9 8 0 0 0 0 0 0 0 0 0 0 0 1 6 1 0 0 5 12 0 4 14 25 58 11 14 4 1 2 2 2 5 1 0 3 0 0 0 0 0 0 0 0
5 0 0 0 0 6 0 0 0 0 0 0 0 0 0 0 41 3 0 0 0 0 19 10 11 1 1 0 1 5 5 4 7 4 5 0 0 0 0 0 0 0 0 0
7 0 1 0 3 11 1 0 1 2 3 0 0 0 0 0 22 3 3 1 0 0 0 10 34 13 3 0 1 10 0 0 4 5 0 0 0 0 0 0 0 0 0 0
0 3 0 2 0 0 0 6 0 0 4 6 0 0 0 0 0 0 0 0 0 0 0 0 5 0 3 2 1 0 0 0 0 0 0 0 0 0 0 0 0 0 0 0
0 0 1 0 1 1 0 2 12 5 7 2 0 0 0 10 0 0 0 0 0 0 14 0 9 1 5 5 2 0 0 0 0 0 0 0 0 0 0 0 0 0 0 0
0 0 0 0 1 0 0 2 0 0 5 0 0 0 0 0 0 0 0 0 0 0 6 0 0 4 4 4 3 2 0 0 0 0 0 0 0 0 0 0 0 0 0 0
0 0 0 0 0 4 1 0 0 0 0 0 0 0 0 0 0 0 0 0 0 0 0 0 0 1 2 3 3 2 2 2 0 0 0 0 0 0 0 0 0 0 0 0
0 0 0 0 0 2 0 6 0 2 20 6 3 0 0 0 0 0 0 0 0 0 0 0 1 1 2 2 2 2 2 1 1 0 0 0 0 0 0 0 0 0 0 0
0 0 0 2 0 0 0 0 0 1 0 4 0 0 9 0 0 0 0 0 0 0 6 5 2 2 3 1 1 1 2 0 1 0 0 0 0 0 0 0 0 0 0 0
0 0 0 0 0 0 0 0 4 0 0 1 0 0 1 0 0 0 0 0 0 4 4 5 2 2 0 0 0 0 1 0 0 0 0 0 0 0 0 0 0 0 0 0
0 0 0 0 0 0 0 0 0 2 0 1 0 1 0 0 1 0 0 0 1 11 1 0 0 0 0 0 0 0 0 1 3 1 0 0 0 0 0 0 0 0 0 0
0 0 0 0 0 0 0 1 0 0 0 0 1 0 1 2 0 1 0 0 0 0 0 1 1 0 0 1 1 1 4 5 5 3 3 2 1 0 0 0 0 0 0 1
0 3 0 0 0 1 0 0 0 1 2 0 0 1 1 2 0 1 2 0 1 3 2 3 3 3 4 4 4 6 6 5 5 3 3 1 1 0 1 2 1 0 0 1
0 0 1 1 0 0 1 0 2 0 0 0 0 1 0 1 3 5 6 6 3 3 4 7 7 3 2 2 2 2 3 2 3 4 4 2 2 1 1 0 0 2 1 0
0 0 1 0 0 1 0 0 1 0 0 1 1 0 0 0 2 3 3 3 3 2 1 1 2 5 5 6 5 2 2 3 1 3 3 1 0 0 0 1 0 0 0 0
1 1 1 0 0 0 0 0 0 0 1 0 0 1 1 2 1 3 4 4 3 5 5 3 2 3 4 4 4 3 3 2 1 0 0 0 0 0 0 0 0 0 0 0
1 1 0 0 0 0 0 0 0 0 0 1 1 0 0 1 2 0 3 4 4 3 4 3 2 1 2 3 3 2 1 0 0 0 0 0 0 0 0 0 0 0 0 0
0 1 0 0 0 0 0 1 1 0 0 0 3 0 0 0 0 1 1 2 2 2 3 2 2 2 1 1 1 0 0 0 0 0 0 0 0 0 0 0 0 0 0 0
0 0 0 0 0 0 0 1 0 0 0 0 2 1 0 0 0 0 2 2 1 2 3 2 3 1 1 0 0 0 0 0 1 1 1 0 0 0 0 0 0 0 0 0
0 0 0 0 0 0 1 0 0 0 0 0 1 3 3 0 2 3 3 2 3 4 2 1 0 3 3 1 0 0 0 0 0 0 0 0 0 0 0 0 0 0 0 0
0 0 0 0 0 0 0 0 0 0 0 0 1 3 2 2 4 4 3 2 2 3 1 0 0 0 0 0 0 0 0 0 0 0 0 0 0 0 0 0 0 0 0 0
0 0 0 0 0 0 1 0 0 1 1 0 0 0 0 0 0 0 0 0 0 0 0 0 0 0 0 0 0 0 0 0 0 0 0 0 0 0 0 0 0 0 0 0
0 0 0 0 0 0 0 0 0 0 0 0 0 0 0 0 0 0 0 0 0 0 0 0 0 0 0 0 0 0 0 0 0 0 0 0 0 0 0 0 0 0 0 0
0 0 0 0 0 0 0 0 0 0 0 0 0 0 0 0 0 0 0 0 0 0 0 0 0 0 0 0 0 0 0 0 0 0 0 0 0 0 0 0 0 0 0 0
0 0 0 0 0 0 0 0 0 0 0 0 0 0 0 0 0 0 0 0 0 0 0 0 0 0 0 0 0 0 0 0 0 0 0 0 0 0 0 0 0 0 0 0
CIN
0 0 0 0 0 0 0 0 0 0 0 -2 0 -2 0 0 0 -3 -2 -2 0 0 -49 -68 -66 -105 -105 -113 0 0 0 0 0 -1 0 -1 0 0 0 0 0 0 0 0
-1 -1 0 0 0 0 0 0 0 0 0 0 0 -1 -2 -3 0 0 -3 -1 0 -22 -48 -65 -55 -109 -125 -55 0 0 0 -1 0 -1 -1 0 0 0 0 0 0 0 0 0
0 0 0 0 0 -1 -1 0 0 0 0 0 0 -1 0 0 -2 -7 0 -2 0 0 -48 -84 -76 -73 0 0 -1 -124 -79 -1 -1 0 -1 -1 0 0 0 0 0 0 0 0
0 0 -13 0 -1 -1 -1 0 -1 -1 -2 0 0 0 0 0 -1 -6 -1 -1 0 0 -2 -57 -78 -120 0 0 0 -218 -1 0 -1 0 0 0 0 0 0 0 0 0 0 0
0 -2 0 0 0 0 0 -2 0 -2 -1 -2 0 0 0 -1 0 0 0 0 0 0 0 0 -93 0 -209 -94 -12 0 0 0 0 0 0 0 0 0 0 0 0 0 0 0
0 0 -1 0 -1 -3 -1 -29 -3 -13 -2 -2 0 0 0 -3 0 0 0 0 0 0 -53 0 -118 -97 -130 -150 -23 0 0 0 0 0 0 0 0 0 0 0 0 0 0 0
0 0 -15 0 0 0 -1 -1 -1 0 -3 0 0 0 0 0 0 0 0 0 0 0 -24 0 0 0 0 -84 0 0 0 0 0 0 0 0 0 0 0 0 0 0 0 0
0 0 0 -1 0 -1 0 0 -1 0 0 0 0 0 0 0 0 0 0 0 0 0 0 0 0 0 0 0 0 0 0 0 0 0 0 0 0 0 0 0 0 0 0 0
0 0 0 0 0 -11 -5 -3 0 -17 -15 -1 -10 0 0 0 0 0 0 0 0 0 -3 0 0 0 0 0 0 0 0 0 0 0 0 0 0 0 0 0 0 0 0 0
0 0 0 0 0 0 0 0 0 -1 0 -4 -1 -18 -6 0 0 0 0 0 0 0 -66 0 0 0 0 0 0 0 0 0 0 0 0 0 0 0 0 0 0 0 0 0
0 -1 0 0 0 0 0 0 -1 0 0 -1 0 0 0 0 0 0 0 0 0 -61 -1 -3 -1 0 0 0 0 0 0 0 0 0 0 0 0 0 0 0 0 0 0 0
0 0 0 0 0 0 0 0 0 -2 0 0 -1 -14 0 0 0 0 0 0 -61 -11 -1 0 0 0 0 0 0 0 0 0 0 0 0 0 0 0 0 0 0 0 0 0
0 0 0 0 0 0 0 0 0 0 0 0 -5 0 0 0 0 0 0 0 0 0 0 0 0 0 0 0 0 0 0 0 0 0 0 0 0 0 0 0 0 0 0 0
0 0 0 0 0 0 0 0 0 0 -2 0 0 0 0 0 0 0 0 0 0 0 0 0 0 0 0 0 0 0 0 0 0 0 0 0 0 0 0 0 0 0 0 0
0 0 0 0 0 0 0 0 0 0 0 0 0 0 0 0 0 0 0 0 0 0 0 0 0 0 0 0 0 0 0 0 0 0 0 0 0 0 0 0 0 0 0 0
0 0 0 0 0 0 0 0 0 0 0 0 0 0 0 0 0 0 0 0 0 0 0 0 0 0 0 0 0 0 0 0 0 0 0 0 0 0 0 0 0 0 0 0
0 0 0 0 0 0 0 0 0 0 0 0 0 0 0 0 0 0 0 0 0 0 0 0 0 0 0 0 0 0 0 0 0 0 0 0 0 0 0 0 0 0 0 0
0 0 0 0 0 0 0 0 0 0 0 0 0 0 0 0 0 0 0 0 0 0 0 0 0 0 0 0 0 0 0 0 0 0 0 0 0 0 0 0 0 0 0 0
0 0 0 0 0 0 0 0 0 0 0 0 0 0 0 0 0 0 0 0 0 0 0 0 0 0 0 0 0 0 0 0 0 0 0 0 0 0 0 0 0 0 0 0
0 0 0 0 0 0 0 0 0 0 0 0 0 0 0 0 0 0 0 0 0 0 0 0 0 0 0 0 0 0 0 0 0 0 0 0 0 0 0 0 0 0 0 0
0 0 0 0 0 0 0 0 0 0 0 0 0 0 0 0 0 0 0 0 0 0 0 0 0 0 0 0 0 0 0 0 0 0 0 0 0 0 0 0 0 0 0 0
0 0 0 0 0 0 0 0 0 0 0 0 0 0 0 0 0 0 0 0 0 0 0 0 0 0 0 0 0 0 0 0 0 0 0 0 0 0 0 0 0 0 0 0
0 0 0 0 0 0 0 0 0 0 0 0 0 0 0 0 0 0 0 0 0 0 0 0 0 0 0 0 0 0 0 0 0 0 0 0 0 0 0 0 0 0 0 0
0 0 0 0 0 0 0 0 0 0 0 0 0 0 0 0 0 0 0 0 0 0 0 0 0 0 0 0 0 0 0 0 0 0 0 0 0 0 0 0 0 0 0 0
0 0 0 0 0 0 0 0 0 0 0 0 0 0 0 0 0 0 0 0 0 0 0 0 0 0 0 0 0 0 0 0 0 0 0 0 0 0 0 0 0 0 0 0
0 0 0 0 0 0 0 0 0 0 0 0 0 0 0 0 0 0 0 0 0 0 0 0 0 0 0 0 0 0 0 0 0 0 0 0 0 0 0 0 0 0 0 0
Wind_Speed
20 25 24 27 31 42 44 47 49 47 43 44 50 55 61 56 48 46 46 46 48 48 40 35 29 24 24 30 27 20 23 23 23 22 20 20 20 17 16 16 15 13 12 11
21 24 37 38 37 40 46 49 52 49 46 46 53 57 53 54 61 51 45 44 45 44 42 37 34 27 25 31 25 23 21 23 23 22 21 21 19 20 18 17 17 15 13 11
10 15 28 24 33 40 47 50 50 48 40 43 47 59 58 55 49 54 54 46 43 45 43 38 32 29 24 30 27 21 24 25 23 21 20 19 18 19 20 18 17 15 14 12
12 12 10 13 42 32 48 47 46 45 41 48 38 58 54 55 54 53 53 51 49 45 42 38 35 29 26 29 25 24 27 24 23 21 21 21 22 22 23 20 18 16 14 13
15 20 25 23 26 13 43 36 41 41 45 46 49 48 45 47 57 56 55 54 46 46 44 40 36 32 28 27 28 20 26 24 23 22 22 22 22 22 18 17 15 15 15 13
16 19 11 14 22 23 24 29 24 32 38 51 51 48 47 47 54 47 47 49 50 45 42 40 34 33 30 27 27 22 22 25 23 22 22 22 21 21 19 18 17 16 15 14
22 6 15 7 10 18 15 17 31 36 41 50 35 47 53 39 41 47 43 42 45 46 40 38 32 32 30 25 23 23 23 25 23 23 22 22 22 20 19 17 17 15 15 15
8 12 18 19 9 1 19 15 25 34 36 34 34 45 43 49 49 38 43 41 40 43 40 36 31 29 29 28 24 23 23 22 23 22 22 22 21 21 20 19 18 18 17 15
8 5 8 2 11 24 32 40 39 19 21 26 30 34 34 32 36 37 39 38 39 39 39 36 31 29 27 27 26 25 23 23 22 23 22 22 22 21 20 19 19 17 16 14
4 11 4 4 18 32 29 36 32 24 20 26 26 28 26 26 33 34 37 36 36 36 34 33 31 28 27 23 25 24 23 24 21 23 22 22 22 22 19 19 18 16 14 14
16 2 1 3 14 29 31 35 29 28 21 18 23 25 20 24 26 31 34 35 33 31 30 29 28 27 27 24 23 24 25 21 21 22 22 21 21 20 19 18 17 14 13 13
5 4 3 4 11 18 24 25 29 25 18 20 21 21 17 21 28 32 32 31 28 26 24 24 24 24 24 23 18 21 23 22 23 21 19 20 19 18 19 17 16 12 12 14
16 3 4 9 10 4 15 15 23 27 17 20 20 22 20 21 23 28 24 20 19 20 20 21 21 23 22 19 19 18 24 23 21 17 15 16 15 15 16 15 11 9 7 11
10 7 9 10 12 14 9 9 16 19 19 18 20 24 23 20 16 17 17 15 16 18 19 19 19 18 18 17 14 16 19 17 18 17 12 12 9 8 10 8 6 4 7 11
6 6 7 10 11 7 3 3 4 9 12 14 15 13 14 13 13 14 16 14 14 15 15 14 16 13 11 9 9 13 15 17 17 8 9 7 3 4 3 7 9 10 9 10
6 3 3 12 11 8 8 8 7 11 5 6 7 6 8 9 5 6 9 10 11 10 9 9 9 10 8 6 0 1 3 3 4 3 3 5 4 4 4 6 7 9 10 12
4 5 4 13 4 7 13 14 2 3 8 9 8 9 4 5 6 6 5 6 6 7 6 6 5 4 2 4 3 2 2 4 4 4 2 3 3 4 7 9 9 9 10 14
4 5 8 9 5 15 6 9 5 7 12 9 3 5 9 6 9 10 6 9 10 8 7 8 7 8 7 10 12 12 7 8 8 6 5 5 8 9 10 11 11 13 17 19
6 3 6 4 7 12 5 9 6 10 10 11 6 6 7 9 16 13 9 11 13 14 12 14 15 15 14 13 13 15 10 8 7 8 10 12 13 13 13 15 16 17 18 18
5 6 2 3 8 4 7 11 2 16 17 14 10 10 12 14 25 13 11 15 17 17 17 16 15 15 12 11 11 10 9 10 12 13 14 15 16 16 17 16 16 18 21 23
3 2 4 1 6 3 15 10 7 15 13 7 13 16 18 22 16 13 14 17 18 18 16 14 13 10 11 11 13 13 13 14 16 17 18 19 20 20 21 21 22 25 26 28
5 3 1 2 2 2 19 4 7 8 10 10 11 14 20 17 16 15 15 15 14 14 14 14 16 15 17 17 18 17 18 19 21 21 21 22 22 23 24 25 26 27 28 30
7 5 4 3 4 2 3 6 5 8 10 10 12 13 17 21 20 19 20 17 17 17 17 17 19 21 22 22 23 22 23 23 23 23 24 25 26 27 28 28 29 30 31 32
8 5 6 10 5 6 7 9 10 10 10 8 12 17 19 23 24 25 23 22 23 22 22 22 24 25 25 25 26 26 25 26 26 27 28 28 29 30 30 29 30 30 31 33
8 7 8 7 4 10 7 5 3 4 7 11 16 18 20 24 24 24 25 25 25 25 24 24 25 26 26 27 28 29 29 29 28 28 29 29 29 30 31 32 33 33 32 36
9 8 7 3 5 16 5 2 2 7 10 12 19 21 21 22 24 27 25 25 25 25 26 27 27 27 28 29 30 31 31 31 30 30 32 33 33 34 34 35 35 34 37 38
Wind_Direction
322 304 292 289 278 269 265 260 256 256 256 256 249 247 243 242 247 246 245 245 243 243 246 245 243 238 235 240 238 232 231 230 233 237 238 245 248 253 257 259 259 260 266 272
321 302 292 285 281 273 263 259 255 258 256 255 250 249 248 243 238 242 244 244 243 243 243 243 240 238 232 239 233 235 226 230 230 234 239 246 247 254 255 256 258 262 265 271
259 263 317 300 282 272 262 256 254 253 260 255 252 248 246 241 241 239 241 244 244 241 240 240 236 234 226 236 235 227 228 232 228 231 237 243 247 251 252 252 257 261 267 273
240 246 255 245 247 275 260 254 255 254 254 246 245 241 243 237 237 238 238 240 242 241 240 239 237 234 226 236 237 232 232 229 225 224 232 234 242 244 251 250 255 260 267 274
260 270 265 241 224 232 250 264 251 251 248 248 243 244 244 237 234 236 237 238 241 239 239 238 240 236 233 234 235 217 231 227 224 224 231 234 241 246 247 248 251 261 268 274
268 266 269 250 223 204 273 260 247 249 245 240 239 238 240 235 231 236 238 237 237 239 239 238 240 235 233 234 230 222 214 228 223 224 227 231 236 243 244 248 250 258 266 272
296 33 17 51 142 169 176 245 240 239 235 235 243 237 235 241 238 235 238 238 237 235 237 235 234 232 229 225 216 222 217 224 225 225 228 233 235 237 238 237 246 250 259 268
319 308 31 28 125 178 159 229 235 233 234 239 238 236 238 240 239 240 238 240 238 233 234 232 230 228 229 227 215 213 219 217 226 227 231 233 235 241 246 245 249 256 262 268
338 341 25 12 196 169 179 194 200 244 245 243 240 245 251 246 235 236 238 240 239 233 232 233 232 227 225 224 218 213 215 224 225 233 236 236 237 239 242 250 255 260 263 264
356 307 67 308 153 174 177 178 200 225 239 237 239 240 243 237 232 235 238 240 237 232 231 234 230 227 227 221 222 220 223 225 224 236 237 237 238 244 246 249 251 257 259 262
307 139 297 120 150 161 165 166 178 189 236 256 238 242 258 249 240 239 241 241 235 230 231 234 230 228 228 228 227 228 231 226 230 238 242 240 242 245 249 248 254 257 256 258
319 218 180 183 157 165 175 173 178 187 250 259 252 246 276 265 250 243 242 240 232 231 229 230 225 225 225 227 225 229 234 236 238 240 242 245 245 247 249 246 251 248 255 265
314 228 221 165 158 217 201 224 196 193 191 234 255 251 280 275 256 240 235 230 225 223 226 224 225 225 228 232 239 233 237 237 240 239 239 246 249 248 249 250 235 253 246 262
300 220 225 199 229 252 230 237 209 196 218 229 271 270 278 268 254 234 227 220 220 224 222 220 222 226 233 234 236 239 238 238 244 247 240 247 249 235 242 238 206 228 268 294
289 169 233 242 213 209 294 125 200 214 260 228 234 265 279 265 240 222 217 215 219 216 217 221 219 224 228 221 237 238 245 258 248 253 245 245 213 198 227 251 275 288 300 299
286 195 250 157 169 189 350 351 342 335 284 237 230 231 257 232 212 202 214 206 200 202 211 214 215 221 234 238 185 154 211 203 223 176 158 138 100 240 301 297 300 299 302 303
266 281 193 148 194 189 126 349 69 43 10 169 162 181 198 156 145 159 169 171 149 185 176 154 160 181 183 239 256 119 70 108 112 82 76 41 358 312 311 304 312 317 318 315
260 292 185 174 189 126 129 352 126 135 15 357 292 187 158 124 100 98 132 122 129 128 114 99 95 84 79 75 80 83 94 89 74 56 28 352 335 333 323 318 312 312 313 316
175 238 193 176 156 148 39 7 99 118 55 25 47 126 142 146 89 80 71 80 88 85 91 84 79 77 82 78 78 77 64 44 14 352 339 328 329 329 323 316 316 324 329 330
190 179 211 191 153 101 358 335 304 131 58 33 62 90 92 104 86 88 73 82 79 76 70 73 70 65 65 60 58 50 27 6 343 334 333 333 336 337 337 343 344 337 331 325
213 241 336 50 159 133 348 335 154 107 111 59 89 98 90 79 92 112 96 77 71 68 67 68 63 55 37 30 31 21 3 358 341 346 353 354 353 350 345 341 337 331 328 326
183 273 240 178 159 131 343 51 77 145 130 113 86 70 64 80 86 81 74 69 64 58 50 42 42 32 26 20 22 13 5 357 4 7 2 357 353 349 344 341 338 335 333 331
192 170 217 159 161 159 70 108 98 111 111 87 83 71 61 58 57 55 52 49 45 41 37 32 33 31 23 16 16 15 5 1 3 4 360 355 352 349 347 345 342 339 337 333
241 255 188 175 147 124 102 108 100 98 94 75 45 42 43 49 47 48 45 40 38 33 32 30 31 28 21 13 12 9 3 2 3 0 357 355 353 350 350 351 348 344 340 337
216 236 193 180 176 145 120 89 89 63 32 31 31 33 35 42 40 39 38 35 33 31 25 21 20 17 13 9 8 4 1 0 2 1 358 356 356 353 349 349 346 344 342 337
225 213 221 235 209 143 184 246 301 1 10 16 31 34 30 33 37 41 34 31 26 21 19 18 17 17 14 11 8 6 4 3 1 358 355 352 350 349 347 344 343 345 342 340